Flag for U.S.A. Weather past 2 weeks in Vevay, Indiana, U.S.A.

Now
68 °F

Scattered clouds.


Feels Like: 68 °F
Forecast: 56 / 81 °F
Wind: 3 mph from Southwest

Location: Cincinnati / Northern Kentucky International Airport

Current Time: Jul 29, 2014 at 9:30:34 PM

Latest Report: Jul 29, 2014 at 8:52 PM


Visibility: 10 mi

Pressure: 30.04 "Hg

Humidity: 59%

Dew point: 53 °F

Location of VevayLocation

Historic Weather in Vevay — Graph

°F

Vevay temperature yesterday

Maximum temperature yesterday: 73 °F (at 5:52 PM)
Minimum temperature yesterday: 59 °F (at 11:52 PM)
Average temperature yesterday: 66 °F

Past Weeks' High & Low Weather Summary

 TemperatureHumidityPressure
High87 °F (Jul 21, 3:52 PM)94% (Jul 20, 4:59 AM)30.16 "Hg (Jul 20, 4:59 AM)
Low50 °F (Jul 29, 6:52 AM)34% (Jul 17, 3:52 PM)29.68 "Hg (Jul 27, 5:52 PM)
Average70 °F70%29.99 "Hg
* Reported Jul 14 7:52 PM — Jul 29 7:52 PM, Vevay, Weather by CustomWeather, © 2014

Note: Actual official high and low records may vary slightly from our data, if they occured in-between our weather recording intervals... More about our weather records

Advertising

Vevay weather history for previous 24 hours

 ConditionsComfort  
Time TempWeatherWind HumidityBarometerVisibility
7:52 PM
Jul 29
70 °FScattered clouds.5 mph57%30.03 "Hg10 mi
6:52 PM72 °FPassing clouds.6 mph52%30.03 "Hg10 mi
5:52 PM73 °FScattered clouds.6 mph46%30.04 "Hg10 mi
4:52 PM72 °FScattered clouds.12 mph48%30.05 "Hg10 mi
3:52 PM72 °FScattered clouds.9 mph48%30.05 "Hg10 mi
2:52 PM70 °FPassing clouds.3 mph49%30.06 "Hg10 mi
1:52 PM70 °FPassing clouds.3 mph49%30.06 "Hg10 mi
12:52 PM67 °FPassing clouds.8 mph53%30.06 "Hg10 mi
11:52 AM67 °FScattered clouds.12 mph51%30.07 "Hg10 mi
10:52 AM63 °FScattered clouds.3 mph65%30.06 "Hg10 mi
9:52 AM60 °FScattered clouds.6 mph78%30.06 "Hg10 mi
8:52 AM56 °FScattered clouds.8 mph84%30.04 "Hg10 mi
7:52 AM54 °FPassing clouds.8 mph86%30.03 "Hg10 mi
6:52 AM50 °FPassing clouds.5 mph89%30.01 "Hg10 mi
5:52 AM53 °FPassing clouds.6 mph83%30.01 "Hg10 mi
4:52 AM53 °FPassing clouds.6 mph83%30.00 "Hg10 mi
3:52 AM52 °FClear.3 mph86%30.00 "Hg10 mi
2:52 AM54 °FClear.7 mph80%30.01 "Hg10 mi
1:52 AM56 °FClear.7 mph77%30.01 "Hg10 mi
12:52 AM58 °FClear.5 mph75%30.00 "Hg10 mi
11:52 PM
Jul 28
59 °FClear.6 mph75%30.00 "Hg10 mi
10:52 PM62 °FClear.7 mph67%30.00 "Hg10 mi
9:52 PM64 °FSunny.14 mph65%29.99 "Hg10 mi
Weather by CustomWeather, © 2014

See weather overviewHow to use our weather pages